GFSSGP_700_rhum_327.txt.gz
RH
37 51 48 41 41 48 73 80 68 60 72 87 96 82 86 76 61 46 30 51 22 21 20 19 18 15 12 10 10 11 13 16 18 24 29 31 31 31 36 34 19 14 17 22 26 26 24 24 24
55 56 48 47 42 66 82 77 72 60 70 78 85 94 97 98 81 20 37 24 20 20 19 19 18 17 17 17 14 12 11 11 12 13 14 13 13 15 19 17 20 17 16 19 23 25 25 26 26
57 59 57 49 43 66 77 92 72 72 83 83 75 75 90 78 19 27 36 70 21 22 23 26 32 37 35 28 21 19 17 15 13 12 11 12 11 11 13 15 17 22 19 20 23 24 24 24 25
57 54 48 49 54 72 76 76 81 75 82 84 79 83 75 22 20 34 85 49 28 34 45 50 55 62 62 59 58 55 44 34 27 22 20 17 15 13 12 13 15 18 23 24 23 24 25 26 26
46 43 46 61 80 98 84 79 87 85 74 73 78 66 41 17 19 22 28 33 41 43 49 53 59 57 56 55 56 58 56 57 57 56 56 55 51 43 35 17 14 15 19 22 23 24 24 24 23
38 38 49 89 85 99 96 97 100 89 81 74 71 48 22 16 21 33 40 40 47 55 58 56 55 54 53 52 52 50 48 53 52 51 51 53 56 59 60 56 51 22 16 20 23 23 22 23 23
33 31 49 88 95 98 99 95 96 89 78 72 58 50 18 18 26 35 37 48 57 53 49 46 40 35 27 16 9 6 6 6 7 8 10 11 15 19 40 49 56 57 32 18 20 24 24 22 22
53 34 56 74 80 91 88 92 88 82 69 60 52 47 20 20 30 31 39 57 55 50 39 15 3 2 2 3 4 5 5 5 5 5 4 4 4 4 6 12 22 35 52 62 38 22 22 24 23
50 35 43 59 68 70 79 79 75 72 63 60 59 50 27 28 29 32 42 56 52 35 5 2 4 5 6 7 8 8 8 7 7 7 6 6 6 6 5 4 5 8 16 25 43 58 49 36 28
42 36 42 55 55 63 76 82 71 67 64 64 61 46 28 27 30 34 53 54 36 5 3 6 7 8 8 8 8 8 7 6 6 6 5 5 5 5 5 5 5 4 4 5 7 12 32 57 61
42 38 39 43 64 71 68 72 76 69 62 60 58 47 31 28 41 54 52 32 4 4 7 9 9 9 7 7 6 4 4 4 4 4 5 5 4 4 4 4 4 4 4 4 4 4 4 5 11
37 36 44 46 68 74 66 70 71 65 65 51 44 39 37 50 57 46 26 4 3 7 9 9 8 8 7 6 4 4 5 5 5 5 5 5 5 4 4 4 4 4 3 3 3 3 3 3 3
34 37 49 52 66 75 68 70 72 64 51 51 46 49 51 52 49 30 5 4 8 9 10 10 9 9 8 6 6 5 5 5 6 6 6 6 5 5 5 5 4 4 4 4 4 4 3 3 2
37 38 48 58 62 67 64 62 61 55 56 48 41 42 44 45 31 12 3 7 9 10 11 11 11 10 10 9 9 8 8 7 6 6 6 5 6 5 5 5 5 5 5 5 4 4 4 4 4
40 41 51 62 72 65 61 61 49 48 54 59 49 46 41 32 18 4 5 8 10 11 12 12 12 12 12 12 12 12 12 12 11 11 11 11 11 10 10 10 9 9 8 8 7 6 5 5 4
57 53 66 71 70 61 53 44 40 36 36 45 45 48 37 24 14 3 8 9 12 13 14 14 13 13 13 13 14 14 14 15 15 14 15 15 15 15 16 16 17 17 17 16 15 14 12 9 6
60 61 56 61 54 53 49 30 38 42 33 28 30 32 28 17 8 4 8 10 13 14 16 16 15 14 14 14 15 15 15 16 16 16 16 17 18 19 20 20 21 22 22 22 21 20 20 19 16
47 49 47 47 44 38 29 24 18 23 17 10 9 10 13 8 4 5 9 11 13 15 18 19 20 19 17 16 16 16 16 16 17 18 19 21 22 23 24 24 25 25 26 26 27 27 26 26 27
27 27 33 38 31 30 22 18 12 11 9 8 11 8 5 6 3 5 10 11 13 16 17 19 21 23 23 21 19 17 16 16 18 19 20 22 23 25 26 26 26 26 26 26 27 30 33 33 30
21 24 28 30 30 21 13 11 9 6 6 9 14 12 8 5 4 6 10 11 13 16 17 19 21 23 24 24 23 22 22 20 20 20 21 22 23 24 26 27 28 28 29 29 30 31 33 36 37
20 23 24 24 20 18 17 8 6 5 4 8 8 8 9 5 6 9 10 13 14 17 18 19 19 20 22 25 27 28 27 26 24 24 24 25 24 23 24 25 25 26 27 30 33 35 39 41 42
18 22 24 22 18 18 17 17 8 9 10 10 10 10 12 10 7 8 10 12 16 18 19 20 20 22 23 24 24 26 29 31 30 31 30 28 28 30 35 35 30 29 31 35 38 45 45 46 47
21 19 23 24 19 19 18 21 10 8 6 11 10 11 13 17 14 9 11 13 17 17 19 21 24 29 34 35 35 31 28 34 38 37 34 35 34 42 51 61 53 38 36 39 45 49 46 46 44
21 19 25 22 20 23 18 19 8 7 10 12 16 13 14 14 17 19 13 13 12 15 21 27 30 35 40 45 49 52 46 42 41 40 45 48 52 62 70 71 76 56 38 41 50 50 50 48 42
20 19 21 25 32 31 20 19 8 9 9 10 15 16 15 14 16 18 20 17 13 17 25 30 34 38 44 49 52 56 59 59 58 57 60 62 66 71 77 83 85 60 42 45 53 54 54 47 34
20 20 21 30 27 22 32 22 14 19 18 18 20 21 17 14 16 19 20 22 19 20 26 33 38 42 46 50 54 57 61 64 67 68 70 72 76 82 85 86 82 49 46 56 57 63 52 40 26
22 20 20 19 37 42 20 18 12 13 19 17 18 18 16 17 18 21 22 23 24 24 28 37 43 44 48 52 55 59 63 67 70 73 75 79 87 88 88 91 57 51 58 62 70 63 43 28 17
22 22 24 22 57 44 27 16 10 16 14 14 11 12 16 13 14 21 23 25 26 28 31 39 44 45 48 52 55 59 63 69 73 77 80 85 93 94 93 63 56 63 68 74 63 42 24 14 11
24 24 22 21 21 35 27 12 11 12 11 11 9 8 7 8 12 16 18 18 22 30 32 36 41 45 50 54 57 60 67 73 77 78 85 92 93 94 60 60 66 73 78 61 40 20 12 10 8
20 24 23 22 24 27 32 19 11 12 14 14 14 15 13 11 13 17 23 21 15 22 31 35 40 49 54 59 60 65 71 76 78 84 90 95 95 60 62 69 76 81 57 33 14 10 9 7 6

GFSSGP_700_rhum_330.txt.gz
RH
38 48 48 43 54 59 69 94 96 95 69 68 73 87 82 69 71 72 65 74 20 18 18 17 16 15 14 11 10 11 12 13 14 14 14 15 19 20 23 19 18 15 18 21 24 24 23 22 22
53 51 47 52 50 52 87 86 89 99 76 73 66 73 86 77 54 32 87 74 20 19 25 21 21 20 19 18 16 15 13 12 11 10 10 11 13 13 13 14 17 19 17 18 22 24 25 24 24
60 53 56 59 74 63 80 94 53 71 73 82 65 69 78 52 21 22 24 33 20 24 32 48 56 56 54 54 50 39 30 24 20 17 15 13 13 13 12 13 14 17 21 21 22 24 24 25 24
49 52 44 68 88 66 83 57 60 73 70 71 70 68 50 15 16 18 24 24 34 43 52 58 57 56 55 55 56 55 56 55 52 49 44 39 32 26 21 13 13 14 18 22 24 24 25 26 27
43 44 62 79 59 76 57 66 68 65 62 65 66 59 27 15 17 21 26 37 43 49 53 55 58 60 58 55 55 54 54 54 56 59 60 61 64 65 62 52 31 19 15 17 21 24 25 26 25
47 36 50 65 68 70 66 68 77 77 68 66 53 32 15 14 18 28 34 41 51 57 56 57 56 53 50 42 28 18 12 11 11 15 15 17 24 37 46 54 66 61 32 17 17 20 23 24 25
50 56 55 77 96 88 69 65 89 88 76 72 55 37 14 16 22 27 35 46 52 56 51 36 21 11 4 3 2 3 3 3 3 4 4 4 4 5 8 12 24 42 62 56 32 22 20 22 24
48 57 65 74 87 92 64 59 62 82 75 64 54 29 14 19 23 24 35 50 59 52 21 3 2 3 4 6 6 7 7 7 7 7 7 7 6 6 5 5 5 8 18 33 52 64 50 29 24
50 55 54 67 74 64 59 61 63 61 65 55 55 34 19 23 22 26 38 52 56 26 3 4 6 7 8 8 8 8 8 7 7 6 6 6 6 6 6 5 5 5 5 5 7 13 29 51 58
56 48 59 72 73 52 60 67 63 62 63 67 56 44 26 20 25 30 45 53 38 4 4 7 8 9 8 7 6 5 4 4 4 4 4 4 4 4 4 4 4 4 4 4 4 4 4 7 20
40 60 35 41 52 59 67 68 70 72 67 66 58 37 25 25 36 44 52 38 7 4 8 9 9 8 7 6 5 4 4 4 4 4 5 4 4 4 4 4 4 4 3 3 3 3 3 3 3
40 34 40 47 60 65 71 72 68 67 71 61 53 45 34 33 48 48 38 11 3 7 9 9 9 8 8 6 5 5 4 5 4 4 4 4 4 4 4 4 4 4 4 4 4 4 4 3 3
35 32 41 53 66 71 71 74 69 65 50 48 46 40 40 50 51 43 20 2 6 9 10 10 10 10 9 8 8 8 8 7 7 6 6 6 6 6 6 6 6 6 6 6 5 5 4 4 4
35 35 46 59 68 70 74 70 65 60 51 53 48 47 47 42 40 26 5 4 8 10 11 11 11 11 11 11 11 11 12 12 11 11 12 12 12 13 13 13 14 14 15 17 17 16 14 12 8
36 39 52 60 63 68 70 73 71 56 60 59 48 44 43 46 26 14 3 7 9 11 12 12 12 12 12 13 13 13 13 13 14 14 14 15 15 16 17 18 19 20 20 21 21 22 22 21 19
54 64 62 54 57 61 62 54 57 49 50 59 57 46 44 36 18 10 3 8 10 11 13 14 13 13 13 13 13 13 14 14 15 16 16 17 18 19 20 20 21 21 22 23 25 26 26 26 26
54 48 54 57 47 55 53 36 34 38 36 35 41 44 37 24 21 9 3 8 10 12 14 15 15 15 14 14 13 13 13 14 15 16 17 19 20 21 23 24 24 25 25 26 28 29 31 33 33
44 47 53 52 44 48 52 38 23 26 26 22 19 17 20 18 18 7 3 8 10 12 15 16 17 17 16 16 15 15 15 15 16 16 17 19 20 22 23 24 26 26 28 29 30 31 32 33 35
39 38 38 50 37 43 40 33 30 13 9 10 6 5 5 10 14 6 4 8 10 12 14 16 18 18 19 19 19 18 19 19 18 18 18 19 20 21 22 22 23 22 22 23 26 30 34 37 38
31 29 32 40 26 23 31 28 28 24 6 8 8 11 10 8 5 4 4 8 10 12 14 16 18 19 19 20 20 21 22 23 24 23 23 22 21 21 21 24 25 26 25 26 27 33 38 43 41
28 28 31 28 25 21 16 14 15 23 10 5 6 9 14 15 8 5 5 8 10 12 15 17 17 17 18 19 19 22 25 26 27 28 28 25 28 29 28 31 40 46 50 41 30 31 37 44 46
24 21 28 24 24 18 18 12 13 17 10 11 9 10 11 13 12 6 7 8 11 14 15 17 18 20 21 22 27 30 30 30 30 30 30 34 40 41 42 48 54 57 60 59 40 34 36 43 46
26 21 28 26 23 20 22 19 12 9 16 18 14 12 14 16 16 11 8 10 12 13 16 18 19 23 31 38 42 46 49 49 50 52 51 52 56 57 58 62 63 65 67 60 42 40 42 46 50
21 21 28 28 25 22 21 18 8 13 15 10 11 18 14 13 17 19 15 12 13 12 14 17 23 33 40 44 46 49 52 54 56 59 62 65 66 66 65 67 71 72 75 57 46 45 47 53 58
21 28 29 28 28 26 23 18 10 12 15 16 20 18 17 16 16 16 20 19 16 13 15 20 28 37 43 46 48 50 53 55 58 61 64 67 69 70 73 78 81 80 76 49 50 52 58 61 60
25 29 36 34 23 16 28 18 24 18 18 18 18 19 20 17 17 19 20 22 23 21 21 25 33 38 42 47 48 52 55 58 61 64 69 74 79 81 88 92 89 85 56 53 54 61 67 66 57
30 25 28 26 26 32 21 23 15 15 20 20 21 19 16 18 21 22 23 23 27 28 26 28 35 38 41 47 54 56 59 62 65 70 75 81 88 94 97 97 94 70 56 62 65 70 72 60 44
24 26 32 29 87 34 20 18 14 25 17 12 10 8 9 12 13 15 20 21 26 29 30 30 35 42 44 48 55 61 64 66 71 75 81 87 92 97 97 96 81 60 66 69 72 79 58 39 20
24 27 24 28 26 29 21 16 10 14 13 12 10 9 8 7 7 14 21 23 23 26 32 33 36 40 45 51 58 67 70 72 76 80 84 90 96 95 96 87 69 72 74 80 83 57 27 15 11
25 38 34 34 36 28 41 22 14 13 14 15 13 9 8 8 8 9 12 16 16 20 20 33 36 40 47 54 63 71 75 78 80 83 90 93 96 100 90 79 77 77 85 77 41 20 11 10 12

GFSSGP_700_rhum_333.txt.gz
RH
47 46 68 63 60 45 58 68 61 74 80 81 69 77 76 73 73 82 31 18 16 17 15 15 14 14 12 11 10 10 10 11 12 13 13 12 12 12 14 14 18 16 18 22 25 25 24 23 23
56 60 64 52 70 39 67 74 75 88 78 65 58 76 87 52 36 22 29 16 17 19 17 20 21 22 22 21 19 18 16 15 13 12 12 12 11 11 12 12 15 19 18 19 23 26 25 24 24
44 46 54 50 55 43 59 72 96 81 58 89 56 84 55 38 16 19 19 16 18 26 38 49 56 54 54 54 57 56 46 37 31 27 24 22 20 18 15 12 12 14 19 20 22 25 26 26 24
59 57 51 50 58 60 69 61 56 53 48 60 84 55 19 13 14 15 18 24 34 44 49 50 53 52 53 54 58 57 57 58 61 61 61 60 61 60 56 42 20 14 15 18 22 24 26 28 28
60 50 41 50 71 80 85 49 70 99 82 74 92 57 16 13 17 21 26 36 43 46 48 49 49 48 50 50 50 46 41 44 52 54 51 50 49 51 53 58 59 55 41 20 17 21 23 25 28
50 45 35 43 78 89 80 49 52 97 87 73 76 33 14 14 19 28 34 41 51 52 46 41 39 35 28 15 7 5 5 4 5 6 7 6 7 10 12 19 30 41 50 49 34 22 20 22 23
49 36 33 51 81 69 58 88 86 92 94 92 88 58 13 15 20 29 37 49 48 44 39 22 6 3 2 3 4 5 5 6 6 6 6 6 6 5 5 5 5 7 13 27 38 50 50 36 24
56 40 37 48 72 73 85 69 96 90 92 61 62 59 14 16 22 27 39 47 47 44 17 3 3 5 6 7 8 8 8 8 7 7 7 7 6 6 6 6 6 6 5 6 9 16 24 44 55
58 40 32 44 56 76 60 75 67 87 79 69 38 28 18 18 23 26 36 48 48 28 3 4 6 8 8 8 8 7 6 5 5 5 4 4 4 4 4 4 4 4 4 4 5 5 5 8 13
57 36 41 48 58 76 49 81 56 66 80 63 46 31 19 21 26 28 36 52 39 8 3 7 8 9 8 7 6 5 4 4 4 4 4 4 4 4 4 4 4 4 4 3 3 3 3 3 4
53 52 61 66 69 67 59 79 67 79 80 66 51 44 30 24 29 31 44 41 16 3 7 9 9 9 8 7 5 4 4 4 4 4 4 4 4 4 4 4 4 4 4 4 4 4 4 3 3
58 39 62 62 66 80 81 78 80 76 72 73 59 44 29 30 33 47 44 25 3 5 8 9 9 9 9 8 6 6 6 6 5 5 5 5 5 5 6 6 6 7 7 8 8 7 6 5 4
58 48 38 52 65 80 80 80 76 76 70 66 57 49 39 35 47 49 38 11 3 7 9 10 10 10 10 10 10 10 10 10 10 10 11 11 12 12 12 14 15 16 18 19 20 20 21 20 18
49 33 34 43 71 60 76 78 71 74 59 50 48 45 41 50 56 46 26 4 5 8 10 10 11 11 11 12 12 13 13 13 13 14 14 14 15 16 17 18 18 19 19 19 19 20 21 22 23
39 39 35 58 47 60 65 73 64 70 58 52 49 46 50 52 51 37 19 3 7 9 10 11 11 11 12 12 13 13 13 14 14 15 15 16 17 18 19 20 20 20 20 21 22 22 23 24 25
57 56 50 54 52 57 54 47 63 47 50 54 54 44 41 42 43 28 18 3 7 9 11 12 12 12 12 12 12 12 13 13 14 15 15 16 16 18 18 19 21 22 22 23 24 25 25 26 27
50 37 40 60 55 54 41 39 60 40 38 41 47 53 48 42 36 27 15 3 7 9 11 13 13 13 13 13 12 12 12 13 14 14 15 16 16 17 17 18 19 20 20 21 22 23 24 26 29
34 33 33 40 51 49 47 38 36 28 21 29 34 37 35 36 25 21 13 4 6 9 11 12 14 14 15 15 15 14 14 15 15 16 16 17 18 17 18 19 20 20 21 22 23 24 26 28 31
26 26 27 29 39 42 36 33 29 35 19 35 56 55 52 39 30 14 9 5 5 8 10 12 14 16 16 16 16 17 17 18 19 19 20 20 18 18 21 22 23 26 31 40 42 33 30 30 31
26 25 22 30 40 39 31 29 25 24 32 30 43 47 50 52 43 13 5 5 4 8 10 12 14 16 17 16 16 18 18 19 20 19 20 21 25 29 31 33 33 40 47 46 46 43 41 38 36
24 21 21 24 34 31 28 22 18 17 21 32 33 38 41 48 47 13 5 5 4 7 10 12 14 15 16 16 17 18 20 24 30 36 42 46 49 51 50 48 45 48 53 53 51 48 42 43 41
24 23 26 25 27 19 26 13 12 13 16 23 31 32 36 41 49 30 10 6 6 8 10 12 14 16 17 18 19 27 36 42 44 47 52 54 59 61 62 59 56 57 59 59 58 55 45 48 46
31 24 25 25 22 20 16 17 10 14 15 19 26 29 30 31 43 24 14 10 7 10 11 14 16 18 19 23 31 40 46 49 50 53 56 59 61 63 62 63 63 60 62 63 63 59 50 53 52
33 24 26 26 24 23 19 18 10 13 17 19 23 28 26 15 18 31 20 19 10 11 13 16 18 21 23 31 39 45 48 53 55 57 60 60 61 62 62 66 66 67 73 76 74 58 55 57 55
33 29 30 28 26 28 21 16 12 22 24 25 24 20 18 17 17 19 23 20 22 14 15 18 20 23 28 37 44 49 51 54 56 58 59 63 64 66 66 71 76 79 84 84 75 63 64 60 62
30 28 34 40 28 19 21 14 22 25 20 16 15 17 16 17 18 20 21 25 26 26 20 20 21 26 33 41 47 51 54 56 59 59 65 68 71 74 76 82 88 90 94 89 74 71 66 67 74
29 31 32 33 38 29 22 21 22 22 27 29 36 20 18 19 20 22 25 25 26 28 28 26 27 33 37 40 48 53 57 60 62 64 69 71 76 82 83 91 94 97 96 82 73 69 74 79 66
29 36 33 32 77 34 23 20 17 22 24 28 33 14 10 9 8 9 16 21 23 31 40 34 31 38 45 44 46 54 60 64 67 72 75 76 82 87 95 99 99 97 85 76 75 79 74 49 36
33 30 32 44 39 34 29 21 18 22 26 31 35 13 12 10 7 6 9 15 23 24 42 48 40 43 49 41 46 53 61 66 73 76 79 83 88 97 100 99 98 86 78 77 78 61 30 45 56
32 34 35 45 35 37 36 29 23 30 36 19 15 14 11 7 7 10 8 9 14 16 21 45 32 63 47 42 47 57 64 72 76 81 85 90 97 100 100 97 86 79 77 69 49 23 23 54 79

GFSSGP_700_rhum_336.txt.gz
RH
36 44 67 73 79 64 50 54 62 67 67 79 57 60 56 61 65 55 14 15 12 12 13 13 12 13 12 12 11 11 10 10 10 10 10 10 10 10 11 13 18 16 18 21 24 24 24 22 22
36 33 69 78 74 67 56 55 74 82 76 62 75 83 45 54 49 18 18 15 16 16 17 20 24 28 32 35 36 33 29 24 22 20 18 18 16 15 12 11 12 16 18 19 22 25 25 24 23
36 44 61 76 56 62 58 65 88 74 70 78 85 72 44 35 16 19 15 16 19 27 39 50 52 48 46 46 47 51 55 55 51 48 47 47 48 47 42 30 16 12 14 18 21 23 26 26 25
29 60 55 45 49 58 65 82 58 48 54 83 76 30 23 16 14 15 17 22 34 44 49 52 48 47 50 48 48 48 48 48 47 54 57 58 56 56 55 56 55 40 25 16 17 20 24 25 26
53 51 47 46 60 66 65 41 49 57 55 90 87 34 15 13 14 18 24 34 40 45 47 45 42 41 39 29 18 14 13 14 14 20 19 19 15 16 17 24 30 40 48 48 26 18 20 22 25
56 42 49 62 64 76 45 42 51 92 88 70 78 25 14 14 18 22 31 38 43 40 38 34 23 12 4 2 3 3 4 4 4 4 5 5 5 5 5 6 7 9 14 24 40 47 37 25 22
52 44 40 61 70 77 74 55 84 85 91 75 40 34 14 14 20 29 35 40 40 42 33 13 2 2 4 6 7 7 8 8 7 7 7 7 7 6 6 6 6 6 6 6 9 14 27 44 51
47 47 34 44 66 70 79 88 84 80 83 84 71 58 14 14 19 25 35 42 43 37 18 2 3 6 8 8 8 8 8 7 6 6 5 5 4 4 4 4 4 4 4 5 5 5 6 6 10
54 50 48 44 51 62 50 84 85 82 82 65 48 62 21 14 19 21 28 40 43 32 7 4 7 8 9 8 7 6 5 4 3 3 4 4 4 4 4 4 4 4 4 4 4 4 4 4 4
51 59 56 52 59 66 51 81 87 82 77 81 38 27 15 16 21 23 28 41 42 19 3 7 9 9 8 8 7 5 4 4 4 4 4 4 4 4 4 4 4 4 3 4 3 3 3 3 3
48 56 53 54 59 66 43 74 66 75 81 73 45 42 28 19 24 29 42 53 32 6 4 8 9 9 9 8 7 5 5 4 4 4 4 4 4 4 5 5 6 6 6 7 7 6 6 4 4
48 52 51 39 44 68 72 71 71 70 68 69 56 49 44 25 29 39 53 43 22 3 7 9 10 10 10 9 9 9 8 9 8 8 8 9 10 11 12 13 15 16 18 19 20 21 21 21 21
46 56 53 52 66 69 67 70 70 71 70 69 62 54 43 30 35 52 56 40 12 4 8 10 10 10 10 10 11 12 12 12 12 13 13 14 14 15 16 17 18 18 18 18 18 19 20 21 22
58 58 62 51 68 70 71 72 70 70 63 67 57 47 48 41 38 42 48 31 6 5 8 10 11 11 11 12 12 12 13 13 14 14 14 15 16 17 18 18 18 18 18 18 18 19 20 21 22
56 60 62 65 69 66 66 69 55 66 61 51 44 41 40 40 49 32 34 18 4 5 8 10 11 11 12 12 12 12 12 13 13 13 14 15 16 16 15 16 16 16 17 17 18 19 20 20 22
56 51 50 57 52 62 56 56 58 60 55 43 44 42 42 37 39 35 31 16 6 4 8 10 12 12 12 12 12 11 11 11 12 13 13 14 13 13 13 12 12 13 14 15 16 16 18 21 25
48 41 38 55 56 52 42 50 58 57 45 41 40 46 50 55 46 36 24 20 9 4 7 10 12 13 13 12 12 12 11 12 12 13 13 13 14 13 12 12 13 14 15 17 22 29 28 27 29
37 41 33 43 47 45 48 44 54 42 29 39 38 46 54 59 55 42 18 18 9 4 7 8 11 13 14 13 13 13 13 12 13 13 13 14 14 15 19 22 22 22 23 26 34 38 39 37 36
34 33 24 25 35 43 41 37 35 36 33 26 60 63 69 66 69 64 22 18 13 4 6 8 10 13 14 15 14 12 12 12 12 12 14 19 30 41 45 43 42 40 35 31 33 40 41 40 36
33 22 21 24 36 40 34 32 31 27 30 25 35 56 61 63 63 61 18 10 12 4 4 8 10 12 14 16 15 13 11 12 15 24 30 40 45 48 50 51 52 53 51 43 38 42 44 46 42
22 22 20 22 32 30 28 24 22 22 24 26 33 44 49 52 54 52 14 8 8 5 4 7 10 12 15 17 16 14 14 22 31 36 43 47 51 53 55 58 61 61 59 54 51 54 52 54 52
23 24 22 24 24 22 25 23 15 17 16 21 27 30 38 40 44 48 36 10 12 8 6 7 10 12 16 18 17 16 23 35 37 39 49 52 55 56 58 60 62 62 64 62 64 63 62 65 64
32 29 25 22 23 22 20 18 16 13 14 16 24 31 32 33 39 44 47 29 16 16 7 8 10 12 16 20 19 20 33 42 46 46 54 54 56 58 58 62 62 63 66 68 71 73 74 74 69
36 27 25 24 24 25 22 20 16 18 17 18 22 25 28 31 34 40 45 46 26 21 16 10 12 15 18 22 25 28 39 46 50 51 57 56 58 59 58 63 63 67 72 76 80 81 83 76 67
37 32 31 35 41 34 22 19 21 23 17 22 26 17 19 20 30 38 46 47 34 22 21 20 15 19 23 27 29 37 44 49 53 56 56 59 63 63 62 66 72 78 82 87 87 88 82 72 63
32 32 38 49 38 32 21 17 25 25 27 32 22 12 16 16 19 23 48 46 30 26 23 26 25 24 30 34 35 41 47 52 55 59 60 64 68 71 74 76 84 88 92 94 92 85 73 66 65
28 29 30 33 33 37 30 25 27 24 28 34 35 20 18 14 12 12 17 26 41 42 32 27 39 34 40 40 41 48 51 54 58 59 64 69 70 77 79 85 92 96 96 93 86 73 67 62 50
29 36 35 31 67 47 26 23 21 23 28 31 38 23 10 9 9 9 7 9 32 57 60 41 43 68 62 56 48 58 56 56 60 66 70 72 77 82 89 96 99 98 95 85 71 66 52 35 28
30 33 36 42 42 47 42 27 20 23 25 31 32 16 14 12 11 8 7 9 11 34 71 73 72 79 88 87 78 66 65 58 65 69 73 75 81 88 96 100 98 95 82 70 62 39 23 19 17
32 34 33 40 40 42 34 33 30 27 29 31 27 18 14 13 9 11 14 15 13 20 61 82 86 85 99 94 77 70 84 78 70 72 75 80 87 95 98 96 90 74 67 53 26 15 10 8 23

GFSSGP_700_rhum_339.txt.gz
RH
57 75 71 74 82 74 61 61 54 54 54 60 56 45 40 66 65 51 9 10 13 12 12 13 13 15 16 18 20 21 20 19 18 16 16 15 13 11 10 11 13 15 16 17 21 21 21 20 21
53 61 47 64 70 66 63 65 63 60 55 86 46 41 46 53 53 13 13 13 14 16 20 26 34 37 39 41 42 40 40 38 38 37 36 36 35 33 28 19 12 13 16 18 19 21 22 22 22
60 67 69 72 63 58 64 64 58 56 77 61 34 41 25 36 23 15 15 18 25 33 42 44 42 45 44 42 40 36 37 38 43 47 47 47 47 47 47 48 43 24 16 15 18 21 23 22 23
62 71 87 84 81 56 56 68 62 45 64 54 36 28 20 14 14 16 19 27 37 42 42 42 44 42 38 34 28 21 15 14 18 21 19 20 17 15 16 20 30 44 50 42 22 18 21 23 24
60 59 65 69 72 72 65 61 51 40 55 66 31 18 18 14 15 18 28 35 41 40 40 36 32 26 16 5 3 3 3 4 4 4 4 4 5 5 5 5 6 8 13 26 42 34 22 20 22
59 65 66 57 74 71 64 55 51 52 56 43 44 15 14 15 18 22 29 35 41 37 34 26 9 2 2 4 5 6 7 7 7 7 7 7 7 7 7 7 6 6 6 7 11 22 39 43 33
58 57 56 52 63 80 49 51 68 73 48 38 24 15 14 16 21 28 32 39 39 38 30 7 2 4 6 8 8 8 8 8 8 7 7 6 6 5 5 5 5 5 5 6 6 6 8 12 24
50 53 54 60 69 75 53 56 85 78 76 58 38 33 16 15 21 27 32 38 40 39 21 2 6 8 8 8 8 7 6 5 4 3 3 3 3 3 3 4 4 4 3 3 4 4 4 4 5
50 55 61 73 72 61 54 54 82 82 78 63 37 21 20 15 18 21 24 32 37 32 10 4 8 9 9 8 7 6 4 3 3 3 4 4 4 4 4 3 3 3 3 3 3 3 3 3 3
48 55 61 64 58 60 51 65 77 76 83 80 53 21 19 16 17 20 23 25 39 26 3 6 9 9 9 8 7 5 4 4 4 4 4 4 4 4 4 4 4 4 4 4 5 5 5 4 4
45 51 58 52 63 58 53 62 63 75 73 62 54 23 24 16 18 19 19 20 33 16 4 8 9 10 10 9 8 8 7 7 6 6 6 7 9 10 11 12 14 15 17 18 18 19 19 20 19
45 55 48 44 58 57 57 76 68 68 72 67 51 40 45 36 24 22 23 27 27 8 5 8 10 10 10 10 10 10 11 11 11 11 12 13 13 14 15 16 16 17 17 18 18 19 20 21 21
46 51 46 39 50 61 74 74 69 76 69 70 62 53 53 44 28 30 25 31 21 5 6 9 10 10 11 11 12 12 12 12 13 13 14 14 15 16 16 16 16 16 16 16 16 17 17 18 18
54 57 44 33 63 69 69 69 68 74 72 68 62 58 49 47 41 34 32 24 13 3 5 8 10 11 11 11 12 12 12 12 13 13 13 14 14 14 13 12 12 11 11 11 11 11 12 13 15
43 54 55 61 47 45 66 68 67 70 71 66 63 49 40 39 33 33 27 27 14 4 4 8 10 11 11 11 11 11 11 11 12 12 11 11 11 12 11 10 9 9 9 9 10 12 16 20 23
50 57 58 54 50 43 54 61 57 68 68 64 57 43 38 34 28 26 24 22 16 5 5 8 9 11 12 11 11 11 11 11 11 10 10 10 10 10 10 11 14 16 16 15 15 16 24 33 35
53 50 50 53 56 47 43 47 55 56 52 45 42 44 46 43 41 40 35 20 9 9 4 8 9 11 12 12 12 11 11 11 10 9 9 9 10 14 21 26 30 32 34 33 29 25 24 25 34
49 45 42 49 59 54 33 37 59 57 57 40 23 27 45 54 59 60 47 27 10 12 5 7 9 12 13 14 13 13 12 10 8 8 9 13 21 27 34 40 42 45 47 46 42 32 29 29 30
38 50 38 32 40 55 40 29 43 42 42 39 33 25 26 38 56 56 50 32 16 11 10 6 10 12 14 15 14 14 13 9 8 11 18 25 33 39 46 50 52 52 55 53 52 48 41 41 40
36 33 26 34 36 48 40 35 31 33 33 31 32 26 25 45 54 50 46 31 27 16 11 5 8 11 13 15 16 16 14 10 13 21 29 36 40 48 53 56 55 56 58 60 61 58 55 57 54
30 24 23 32 41 35 23 24 23 22 25 34 32 29 36 48 51 51 45 34 30 23 10 6 6 11 13 15 18 18 15 14 20 29 37 42 48 52 54 56 57 57 59 61 62 64 65 61 62
26 27 23 22 23 24 23 25 22 17 16 29 31 32 40 46 48 48 43 39 37 38 24 12 6 8 13 16 19 21 20 19 22 31 45 48 53 54 54 56 58 60 62 63 66 68 71 72 71
28 28 28 23 24 24 20 23 20 17 22 33 32 32 31 31 39 40 42 42 41 42 39 30 13 8 13 16 21 24 26 25 29 35 45 51 52 54 55 58 63 65 68 68 70 74 77 78 78
32 31 25 24 22 28 19 23 24 18 24 33 33 32 30 32 33 33 35 38 39 37 38 40 35 13 14 20 25 26 31 33 34 41 48 54 56 56 58 61 65 68 69 73 79 82 82 83 73
34 33 33 40 42 39 26 21 22 22 19 18 19 18 20 24 30 34 36 37 39 38 40 41 38 30 19 23 32 33 34 41 46 46 51 54 54 58 59 63 69 73 80 86 89 86 85 76 61
36 30 34 49 52 39 32 20 25 25 21 17 15 16 13 19 27 37 40 42 41 36 28 27 40 50 45 30 33 42 43 42 46 50 53 54 57 63 68 75 82 89 90 91 92 90 77 62 60
34 32 28 35 32 38 33 30 27 27 27 23 19 16 15 16 16 18 21 30 28 24 29 43 46 62 67 64 46 44 54 54 51 52 56 61 67 71 78 86 88 92 98 97 91 75 65 58 36
30 34 33 32 51 50 33 27 26 28 34 28 23 15 11 9 10 11 9 12 27 27 45 62 68 70 74 78 79 64 54 62 70 65 66 70 72 78 84 87 94 100 98 89 71 66 47 19 9
29 33 36 36 32 54 51 31 25 26 31 28 24 20 17 14 14 15 13 14 18 27 47 71 71 74 77 77 76 71 79 85 98 100 99 86 80 82 88 95 99 95 79 65 59 28 8 3 4
34 33 32 36 43 44 38 33 28 25 28 27 26 26 27 17 20 21 32 25 18 16 46 73 75 74 77 79 81 87 98 100 100 100 100 92 84 84 92 96 84 65 64 35 9 2 2 3 5